Malmstrom AFB, MT

12:30 PM MDT on August 18, 2017 (GMT -0600)
Malmstrom AFB

Weather History for KGFA - March, 2013

Change the Weather History Date:

Thursday, March 14, 2013

  Actual Average (KGTF) Record (KGTF)
Temperature  
Mean Temperature 46 °F -  
Max Temperature 63 °F 43 °F 71 °F (2015)
Min Temperature 26 °F 22 °F -16 °F (1967)
Degree Days  
Heating Degree Days 20    
Moisture  
Dew Point 27 °F    
Average Humidity 52    
Maximum Humidity 88    
Minimum Humidity 26    
Precipitation  
Precipitation 0.00 in - - ()
Sea Level Pressure  
Sea Level Pressure 30.10 in    
Wind  
Wind Speed 14 mph (SSW)    
Max Wind Speed 24 mph    
Max Gust Speed 31 mph    
Visibility 10 miles    
Events      
Averages and records for this station are not official NWS values.
T = Trace of Precipitation, MM = Missing Value Source: NWS Daily Summary

Daily Weather History Graph

Daily Weather History Graph

Search for Another Location

Airport or City:

Trip Planner

Search our weather history database for the weather conditions in past years. The results will help you decide how hot, cold, wet, or windy it might be!

Date:

Astronomy

Mar. 14, 2013 Rise Set
Actual Time 7:39 AM MDT 7:29 PM MDT
Civil Twilight 7:08 AM MDT 7:59 PM MDT
Nautical Twilight 6:32 AM MDT 8:35 PM MDT
Astronomical Twilight 5:56 AM MDT 9:12 PM MDT
Moon 8:40 AM MDT (3/14) 11:06 PM MDT (3/14)
Length of Visible Light 12h 51m
Length of Day
11h 50m
Waxing Crescent, 9% of the Moon is Illuminated
Mar 14
Waxing Crescent
Mar 19
First Quarter
Mar 27
Full
Apr 2
Last Quarter
Apr 10
New

Hourly Weather History & Observations

Time (MDT) Temp. Windchill Dew Point Humidity Pressure Visibility Wind Dir Wind Speed Gust Speed Precip Events Conditions
12:56 AM 50.0 °F - 27.0 °F 41% 30.13 in 10.0 mi SSW 12.7 mph - N/A   Clear
1:56 AM 51.1 °F - 27.0 °F 39% 30.12 in 10.0 mi SSW 16.1 mph - N/A   Clear
2:56 AM 46.0 °F 39.9 °F 27.0 °F 47% 30.14 in 10.0 mi SSW 13.8 mph - N/A   Clear
3:56 AM 44.1 °F 38.1 °F 27.0 °F 51% 30.14 in 10.0 mi SSE 11.5 mph - N/A   Clear
4:56 AM 43.0 °F 37.7 °F 28.0 °F 56% 30.14 in 10.0 mi South 9.2 mph - N/A   Clear
5:56 AM 43.0 °F 36.8 °F 28.9 °F 58% 30.16 in 10.0 mi SSE 11.5 mph - N/A   Clear
6:56 AM 46.0 °F 39.9 °F 28.0 °F 50% 30.14 in 10.0 mi South 13.8 mph - N/A   Clear
7:56 AM 48.0 °F - 28.0 °F 46% 30.13 in 10.0 mi South 10.4 mph - N/A   Clear
8:56 AM 50.0 °F - 28.0 °F 43% 30.13 in 10.0 mi South 4.6 mph - N/A   Clear
9:56 AM 55.0 °F - 27.0 °F 34% 30.12 in 10.0 mi SW 20.7 mph 31.1 mph N/A   Clear
10:56 AM 55.0 °F - 26.1 °F 33% 30.11 in 10.0 mi SW 24.2 mph 28.8 mph N/A   Clear
11:56 AM 57.0 °F - 27.0 °F 32% 30.10 in 10.0 mi SSW 21.9 mph 29.9 mph N/A   Partly Cloudy
12:56 PM 55.9 °F - 28.0 °F 34% 30.13 in 10.0 mi SSW 17.3 mph - N/A   Partly Cloudy
1:56 PM 61.0 °F - 28.0 °F 29% 30.08 in 10.0 mi SSW 20.7 mph - N/A   Clear
2:56 PM 63.0 °F - 27.0 °F 26% 30.06 in 10.0 mi SSW 21.9 mph 28.8 mph N/A   Clear
3:56 PM 62.1 °F - 27.0 °F 26% 30.06 in 10.0 mi SSW 23.0 mph 29.9 mph N/A   Clear
4:56 PM 46.0 °F 39.0 °F 30.9 °F 56% 30.10 in 10.0 mi North 17.3 mph - N/A   Overcast
5:56 PM 39.0 °F 30.6 °F 28.9 °F 67% 30.11 in 10.0 mi North 15.0 mph - N/A   Clear
6:56 PM 37.0 °F 29.8 °F 28.0 °F 70% 30.09 in 9.0 mi North 10.4 mph - N/A   Clear
7:56 PM 34.0 °F 29.8 °F 27.0 °F 75% 30.06 in 9.0 mi NNE 4.6 mph - N/A   Clear
8:56 PM 32.0 °F 26.4 °F 26.1 °F 79% 30.04 in 9.0 mi North 5.8 mph - N/A   Clear
9:56 PM 30.0 °F 26.5 °F 25.0 °F 82% 30.01 in 9.0 mi North 3.5 mph - N/A   Clear
10:56 PM 28.0 °F 20.0 °F 24.1 °F 85% 30.01 in 10.0 mi North 8.1 mph - N/A   Clear
11:56 PM 26.1 °F 18.4 °F 23.0 °F 88% 30.01 in 8.0 mi North 6.9 mph - N/A   Clear